Time,TemperatureF,DewpointF,PressureIn,WindDirection,WindDirectionDegrees,WindSpeedMPH,WindSpeedGustMPH,Humidity,HourlyPrecipIn,Conditions,Clouds,dailyrainin,SoftwareType,DateUTC
2013-03-21 00:00:00,22.3,13.7,24.27,NNW,342,5.0,11.0,69,0.00,,SKC,0.00,VWS V14.01,2013-03-21 04:00:00,
2013-03-21 00:05:00,21.7,15.0,24.27,NNW,331,4.0,13.0,75,0.00,,SKC,0.00,VWS V14.01,2013-03-21 04:05:00,
2013-03-21 00:10:00,21.7,14.7,24.27,NW,317,5.0,10.0,74,0.00,,SKC,0.00,VWS V14.01,2013-03-21 04:10:00,
2013-03-21 00:15:00,21.8,14.5,24.27,NW,313,0.0,8.0,73,0.00,,SKC,0.00,VWS V14.01,2013-03-21 04:15:00,
2013-03-21 00:20:00,21.9,14.0,24.27,NW,313,0.0,5.0,71,0.00,,SKC,0.00,VWS V14.01,2013-03-21 04:20:00,
2013-03-21 00:25:00,22.0,13.4,24.26,NNW,337,1.0,10.0,69,0.00,,SKC,0.00,VWS V14.01,2013-03-21 04:25:00,
2013-03-21 00:30:00,22.0,13.1,24.26,NW,322,7.0,11.0,68,0.00,,SKC,0.00,VWS V14.01,2013-03-21 04:30:00,
2013-03-21 00:35:00,22.1,13.2,24.27,WNW,297,2.0,10.0,68,0.00,,SKC,0.00,VWS V14.01,2013-03-21 04:35:00,
2013-03-21 00:40:00,22.1,13.2,24.25,WNW,300,3.0,11.0,68,0.00,,SKC,0.00,VWS V14.01,2013-03-21 04:40:00,
2013-03-21 00:45:00,22.0,13.7,24.28,NW,324,4.0,7.0,70,0.00,,SKC,0.00,VWS V14.01,2013-03-21 04:45:00,
2013-03-21 00:50:00,21.9,14.0,24.27,NW,306,3.0,6.0,71,0.00,,SKC,0.00,VWS V14.01,2013-03-21 04:50:00,
2013-03-21 00:55:00,21.8,14.5,24.29,West,273,5.0,5.0,73,0.00,,SKC,0.00,VWS V14.01,2013-03-21 04:55:00,
2013-03-21 01:00:00,21.8,14.2,24.27,North,355,4.0,13.0,72,0.00,,SKC,0.00,VWS V14.01,2013-03-21 05:00:00,
2013-03-21 01:05:00,21.7,12.8,24.25,NW,326,2.0,14.0,68,0.00,,SKC,0.00,VWS V14.01,2013-03-21 05:05:00,
2013-03-21 01:10:00,21.7,13.1,24.25,NNW,330,4.0,6.0,69,0.00,,SKC,0.00,VWS V14.01,2013-03-21 05:10:00,
2013-03-21 01:15:00,21.6,13.0,24.24,NW,306,3.0,13.0,69,0.00,,SKC,0.00,VWS V14.01,2013-03-21 05:15:00,
2013-03-21 01:20:00,21.5,13.6,24.27,WNW,294,5.0,11.0,71,0.00,,SKC,0.00,VWS V14.01,2013-03-21 05:20:00,
2013-03-21 01:25:00,21.5,13.6,24.31,WNW,301,2.0,7.0,71,0.00,,SKC,0.00,VWS V14.01,2013-03-21 05:25:00,
2013-03-21 01:30:00,21.6,13.3,24.31,WNW,293,3.0,5.0,70,0.00,,SKC,0.00,VWS V14.01,2013-03-21 05:30:00,
2013-03-21 01:35:00,21.6,13.3,24.31,WNW,297,2.0,7.0,70,0.00,,SKC,0.00,VWS V14.01,2013-03-21 05:35:00,
2013-03-21 01:40:00,21.7,13.1,24.29,NNW,337,3.0,9.0,69,0.00,,SKC,0.00,VWS V14.01,2013-03-21 05:40:00,
2013-03-21 01:45:00,21.7,13.4,24.32,WNW,300,1.0,11.0,70,0.00,,SKC,0.00,VWS V14.01,2013-03-21 05:45:00,
2013-03-21 01:50:00,21.7,13.4,24.31,WNW,289,0.0,5.0,70,0.00,,SKC,0.00,VWS V14.01,2013-03-21 05:50:00,
2013-03-21 01:55:00,21.6,13.7,24.30,WNW,292,6.0,12.0,71,0.00,,SKC,0.00,VWS V14.01,2013-03-21 05:55:00,
2013-03-21 02:00:00,21.5,13.9,24.33,WNW,283,5.0,10.0,72,0.00,,SKC,0.00,VWS V14.01,2013-03-21 06:00:00,
2013-03-21 02:05:00,21.5,13.9,24.31,WNW,296,0.0,5.0,72,0.00,,SKC,0.00,VWS V14.01,2013-03-21 06:05:00,
2013-03-21 02:10:00,21.5,13.9,24.31,NW,308,0.0,10.0,72,0.00,,SKC,0.00,VWS V14.01,2013-03-21 06:10:00,
2013-03-21 02:15:00,21.6,14.0,24.33,NNW,331,2.0,6.0,72,0.00,,SKC,0.00,VWS V14.01,2013-03-21 06:15:00,
2013-03-21 02:20:00,21.6,13.7,24.33,NW,311,2.0,4.0,71,0.00,,SKC,0.00,VWS V14.01,2013-03-21 06:20:00,
2013-03-21 02:25:00,21.6,13.7,24.31,WNW,302,1.0,5.0,71,0.00,,SKC,0.00,VWS V14.01,2013-03-21 06:25:00,
2013-03-21 02:30:00,21.6,13.3,24.31,NW,307,4.0,12.0,70,0.00,,SKC,0.00,VWS V14.01,2013-03-21 06:30:00,
2013-03-21 02:35:00,21.2,13.6,24.31,NW,324,6.0,9.0,72,0.00,,SKC,0.00,VWS V14.01,2013-03-21 06:35:00,
2013-03-21 02:40:00,20.7,14.4,24.33,NW,317,3.0,6.0,76,0.00,,SKC,0.00,VWS V14.01,2013-03-21 06:40:00,
2013-03-21 02:45:00,20.6,14.2,24.32,NNW,330,0.0,5.0,76,0.00,,SKC,0.00,VWS V14.01,2013-03-21 06:45:00,
2013-03-21 02:50:00,20.5,14.7,24.30,WNW,298,2.0,4.0,78,0.00,,SKC,0.00,VWS V14.01,2013-03-21 06:50:00,
2013-03-21 02:55:00,20.4,14.9,24.30,West,271,3.0,4.0,79,0.00,,SKC,0.00,VWS V14.01,2013-03-21 06:55:00,
2013-03-21 03:00:00,20.5,14.7,24.33,NW,311,0.0,10.0,78,0.00,,SKC,0.00,VWS V14.01,2013-03-21 07:00:00,
2013-03-21 03:05:00,20.6,14.8,24.31,NW,311,0.0,5.0,78,0.00,,SKC,0.00,VWS V14.01,2013-03-21 07:05:00,
2013-03-21 03:10:00,20.6,14.2,24.33,NW,310,2.0,7.0,76,0.00,,SKC,0.00,VWS V14.01,2013-03-21 07:10:00,
2013-03-21 03:15:00,20.6,14.6,24.32,NW,311,4.0,9.0,77,0.00,,SKC,0.00,VWS V14.01,2013-03-21 07:15:00,
2013-03-21 03:20:00,20.5,14.1,24.31,NNW,345,9.0,12.0,76,0.00,,SKC,0.00,VWS V14.01,2013-03-21 07:20:00,
2013-03-21 03:25:00,20.3,13.0,24.31,North,5,7.0,11.0,73,0.00,,SKC,0.00,VWS V14.01,2013-03-21 07:25:00,
2013-03-21 03:30:00,20.1,12.9,24.29,NW,317,2.0,11.0,73,0.00,,SKC,0.00,VWS V14.01,2013-03-21 07:30:00,
2013-03-21 03:35:00,20.0,13.1,24.28,NW,312,6.0,6.0,74,0.00,,SKC,0.00,VWS V14.01,2013-03-21 07:35:00,
2013-03-21 03:40:00,19.9,13.0,24.29,NNW,327,3.0,5.0,74,0.00,,SKC,0.00,VWS V14.01,2013-03-21 07:40:00,
2013-03-21 03:45:00,19.9,13.0,24.27,NNW,344,2.0,10.0,74,0.00,,SKC,0.00,VWS V14.01,2013-03-21 07:45:00,
2013-03-21 03:50:00,19.9,13.0,24.27,WNW,300,0.0,4.0,74,0.00,,SKC,0.00,VWS V14.01,2013-03-21 07:50:00,
2013-03-21 03:55:00,20.0,12.8,24.28,NW,319,7.0,7.0,73,0.00,,SKC,0.00,VWS V14.01,2013-03-21 07:55:00,
2013-03-21 04:00:00,20.0,12.4,24.30,NW,322,3.0,6.0,72,0.00,,SKC,0.00,VWS V14.01,2013-03-21 08:00:00,
2013-03-21 04:05:00,20.0,12.8,24.30,NNW,344,4.0,12.0,73,0.00,,SKC,0.00,VWS V14.01,2013-03-21 08:05:00,
2013-03-21 04:10:00,20.1,12.5,24.29,NNW,327,3.0,6.0,72,0.00,,SKC,0.00,VWS V14.01,2013-03-21 08:10:00,
2013-03-21 04:15:00,20.2,12.9,24.27,NW,322,0.0,7.0,73,0.00,,SKC,0.00,VWS V14.01,2013-03-21 08:15:00,
2013-03-21 04:20:00,20.2,12.6,24.27,NNW,336,3.0,7.0,72,0.00,,SKC,0.00,VWS V14.01,2013-03-21 08:20:00,
2013-03-21 04:25:00,20.2,12.9,24.28,West,259,10.0,12.0,73,0.00,,SKC,0.00,VWS V14.01,2013-03-21 08:25:00,
2013-03-21 04:30:00,20.1,12.9,24.29,NNW,330,1.0,6.0,73,0.00,,SKC,0.00,VWS V14.01,2013-03-21 08:30:00,
2013-03-21 04:35:00,20.0,12.8,24.27,NW,311,4.0,5.0,73,0.00,,SKC,0.00,VWS V14.01,2013-03-21 08:35:00,
2013-03-21 04:40:00,19.9,13.0,24.26,NNW,343,0.0,6.0,74,0.00,,SKC,0.00,VWS V14.01,2013-03-21 08:40:00,
2013-03-21 04:45:00,19.7,13.4,24.28,NW,317,4.0,6.0,76,0.00,,SKC,0.00,VWS V14.01,2013-03-21 08:45:00,
2013-03-21 04:50:00,19.5,13.5,24.26,NW,313,5.0,12.0,77,0.00,,SKC,0.00,VWS V14.01,2013-03-21 08:50:00,
2013-03-21 04:55:00,19.4,13.4,24.26,NNW,342,2.0,7.0,77,0.00,,SKC,0.00,VWS V14.01,2013-03-21 08:55:00,
2013-03-21 05:00:00,19.4,13.4,24.26,NNW,344,5.0,9.0,77,0.00,,SKC,0.00,VWS V14.01,2013-03-21 09:00:00,
2013-03-21 05:05:00,19.3,13.6,24.28,West,264,6.0,7.0,78,0.00,,SKC,0.00,VWS V14.01,2013-03-21 09:05:00,
2013-03-21 05:10:00,19.4,13.7,24.27,NW,319,4.0,6.0,78,0.00,,SKC,0.00,VWS V14.01,2013-03-21 09:10:00,
2013-03-21 05:15:00,19.3,13.6,24.28,NW,323,2.0,7.0,78,0.00,,SKC,0.00,VWS V14.01,2013-03-21 09:15:00,
2013-03-21 05:20:00,19.3,13.6,24.26,WNW,300,2.0,5.0,78,0.00,,SKC,0.00,VWS V14.01,2013-03-21 09:20:00,
2013-03-21 05:25:00,19.3,13.6,24.29,NNW,345,4.0,7.0,78,0.00,,SKC,0.00,VWS V14.01,2013-03-21 09:25:00,
2013-03-21 05:30:00,19.2,13.5,24.29,NNW,331,5.0,8.0,78,0.00,,SKC,0.00,VWS V14.01,2013-03-21 09:30:00,
2013-03-21 05:35:00,19.2,13.5,24.29,WNW,303,5.0,7.0,78,0.00,,SKC,0.00,VWS V14.01,2013-03-21 09:35:00,
2013-03-21 05:40:00,19.1,13.1,24.33,NNW,344,6.0,7.0,77,0.00,,SKC,0.00,VWS V14.01,2013-03-21 09:40:00,
2013-03-21 05:45:00,19.1,13.4,24.30,NNW,327,4.0,6.0,78,0.00,,SKC,0.00,VWS V14.01,2013-03-21 09:45:00,
2013-03-21 05:50:00,19.1,13.1,24.30,NW,306,4.0,9.0,77,0.00,,SKC,0.00,VWS V14.01,2013-03-21 09:50:00,
2013-03-21 05:55:00,19.0,13.0,24.29,NNW,348,3.0,11.0,77,0.00,,SKC,0.00,VWS V14.01,2013-03-21 09:55:00,
2013-03-21 06:00:00,19.0,13.0,24.29,NNW,341,6.0,7.0,77,0.00,,SKC,0.00,VWS V14.01,2013-03-21 10:00:00,
2013-03-21 06:05:00,19.0,13.0,24.29,NNW,330,0.0,7.0,77,0.00,,SKC,0.00,VWS V14.01,2013-03-21 10:05:00,
2013-03-21 06:10:00,18.9,12.6,24.28,NNW,345,13.0,13.0,76,0.00,,SKC,0.00,VWS V14.01,2013-03-21 10:10:00,
2013-03-21 06:15:00,18.8,12.5,24.29,West,277,4.0,9.0,76,0.00,,SKC,0.00,VWS V14.01,2013-03-21 10:15:00,
2013-03-21 06:20:00,18.8,12.5,24.29,NNW,341,0.0,5.0,76,0.00,,SKC,0.00,VWS V14.01,2013-03-21 10:20:00,
2013-03-21 06:25:00,18.7,12.4,24.29,NW,314,4.0,7.0,76,0.00,,SKC,0.00,VWS V14.01,2013-03-21 10:25:00,
2013-03-21 06:30:00,18.6,12.3,24.28,WNW,302,6.0,7.0,76,0.00,,SKC,0.00,VWS V14.01,2013-03-21 10:30:00,
2013-03-21 06:35:00,18.4,12.1,24.30,NW,315,3.0,6.0,76,0.00,,SKC,0.00,VWS V14.01,2013-03-21 10:35:00,
2013-03-21 06:40:00,18.2,11.9,24.31,NW,304,4.0,11.0,76,0.00,,SKC,0.00,VWS V14.01,2013-03-21 10:40:00,
2013-03-21 06:45:00,18.0,11.7,24.29,NW,323,1.0,6.0,76,0.00,,SKC,0.00,VWS V14.01,2013-03-21 10:45:00,
2013-03-21 06:50:00,17.9,11.6,24.31,NNW,329,4.0,6.0,76,0.00,,SKC,0.00,VWS V14.01,2013-03-21 10:50:00,
2013-03-21 06:55:00,17.9,11.6,24.31,NNW,347,0.0,6.0,76,0.00,,SKC,0.00,VWS V14.01,2013-03-21 10:55:00,
2013-03-21 07:00:00,17.8,11.5,24.33,NW,313,6.0,7.0,76,0.00,,SKC,0.00,VWS V14.01,2013-03-21 11:00:00,
2013-03-21 07:05:00,17.7,11.4,24.33,NNW,344,0.0,4.0,76,0.00,,SKC,0.00,VWS V14.01,2013-03-21 11:05:00,
2013-03-21 07:10:00,17.7,11.4,24.33,NW,319,4.0,9.0,76,0.00,,SKC,0.00,VWS V14.01,2013-03-21 11:10:00,
2013-03-21 07:15:00,17.6,11.6,24.32,NNW,329,7.0,10.0,77,0.00,,SKC,0.00,VWS V14.01,2013-03-21 11:15:00,
2013-03-21 07:20:00,17.6,11.6,24.33,NW,321,0.0,2.0,77,0.00,,SKC,0.00,VWS V14.01,2013-03-21 11:20:00,
2013-03-21 07:25:00,17.5,11.8,24.33,WNW,301,2.0,3.0,78,0.00,,SKC,0.00,VWS V14.01,2013-03-21 11:25:00,
2013-03-21 07:30:00,17.5,11.8,24.32,North,360,4.0,5.0,78,0.00,,SKC,0.00,VWS V14.01,2013-03-21 11:30:00,
2013-03-21 07:35:00,17.4,11.7,24.32,WNW,285,3.0,3.0,78,0.00,,SKC,0.00,VWS V14.01,2013-03-21 11:35:00,
2013-03-21 07:40:00,17.3,11.6,24.33,NW,316,3.0,5.0,78,0.00,,SKC,0.00,VWS V14.01,2013-03-21 11:40:00,
2013-03-21 07:45:00,17.2,11.5,24.32,West,266,2.0,4.0,78,0.00,,SKC,0.00,VWS V14.01,2013-03-21 11:45:00,
2013-03-21 07:50:00,17.2,11.5,24.32,NW,323,4.0,4.0,78,0.00,,SKC,0.00,VWS V14.01,2013-03-21 11:50:00,
2013-03-21 07:55:00,17.1,11.4,24.32,NW,314,2.0,3.0,78,0.00,,SKC,0.00,VWS V14.01,2013-03-21 11:55:00,
2013-03-21 08:00:00,17.1,11.4,24.33,NNW,342,6.0,11.0,78,0.00,,SKC,0.00,VWS V14.01,2013-03-21 12:00:00,
2013-03-21 08:05:00,17.1,11.4,24.27,NW,306,0.0,4.0,78,0.00,,SKC,0.00,VWS V14.01,2013-03-21 12:05:00,
2013-03-21 08:10:00,17.1,11.4,24.32,NW,315,2.0,3.0,78,0.00,,SKC,0.00,VWS V14.01,2013-03-21 12:10:00,
2013-03-21 08:15:00,17.2,11.2,24.32,WNW,283,3.0,6.0,77,0.00,,SKC,0.00,VWS V14.01,2013-03-21 12:15:00,
2013-03-21 08:20:00,17.3,11.3,24.33,NNW,336,3.0,8.0,77,0.00,,SKC,0.00,VWS V14.01,2013-03-21 12:20:00,
2013-03-21 08:25:00,17.5,11.5,24.27,NNW,334,3.0,5.0,77,0.00,,SKC,0.00,VWS V14.01,2013-03-21 12:25:00,
2013-03-21 08:30:00,17.7,11.4,24.27,North,360,1.0,3.0,76,0.00,,SKC,0.00,VWS V14.01,2013-03-21 12:30:00,
2013-03-21 08:35:00,17.9,11.6,24.32,West,260,2.0,9.0,76,0.00,,SKC,0.00,VWS V14.01,2013-03-21 12:35:00,
2013-03-21 08:40:00,17.9,11.3,24.27,NW,317,2.0,4.0,75,0.00,,SKC,0.00,VWS V14.01,2013-03-21 12:40:00,
2013-03-21 08:45:00,18.2,11.6,24.32,WNW,293,4.0,5.0,75,0.00,,SKC,0.00,VWS V14.01,2013-03-21 12:45:00,
2013-03-21 08:50:00,18.3,11.4,24.32,WNW,282,4.0,10.0,74,0.00,,SKC,0.00,VWS V14.01,2013-03-21 12:50:00,
2013-03-21 08:55:00,18.5,11.9,24.29,West,269,3.0,5.0,75,0.00,,SKC,0.00,VWS V14.01,2013-03-21 12:55:00,
2013-03-21 09:00:00,18.7,11.5,24.29,WNW,288,3.0,7.0,73,0.00,,SKC,0.00,VWS V14.01,2013-03-21 13:00:00,
2013-03-21 09:05:00,18.8,11.6,24.31,NW,312,3.0,7.0,73,0.00,,SKC,0.00,VWS V14.01,2013-03-21 13:05:00,
2013-03-21 09:10:00,19.0,11.8,24.25,WNW,294,6.0,12.0,73,0.00,,SKC,0.00,VWS V14.01,2013-03-21 13:10:00,
2013-03-21 09:15:00,19.3,12.1,24.24,NW,317,5.0,6.0,73,0.00,,SKC,0.00,VWS V14.01,2013-03-21 13:15:00,
2013-03-21 09:20:00,19.4,11.9,24.32,WNW,303,6.0,10.0,72,0.00,,SKC,0.00,VWS V14.01,2013-03-21 13:20:00,
2013-03-21 09:25:00,19.6,12.1,24.30,NW,309,7.0,16.0,72,0.00,,SKC,0.00,VWS V14.01,2013-03-21 13:25:00,
2013-03-21 09:30:00,19.8,12.2,24.30,West,260,11.0,13.0,72,0.00,,SKC,0.00,VWS V14.01,2013-03-21 13:30:00,
2013-03-21 09:35:00,19.8,12.2,24.30,West,269,2.0,12.0,72,0.00,,SKC,0.00,VWS V14.01,2013-03-21 13:35:00,
2013-03-21 09:40:00,20.1,12.5,24.30,NW,315,4.0,6.0,72,0.00,,SKC,0.00,VWS V14.01,2013-03-21 13:40:00,
2013-03-21 09:45:00,20.3,12.1,24.30,WNW,302,1.0,10.0,70,0.00,,SKC,0.00,VWS V14.01,2013-03-21 13:45:00,
2013-03-21 09:50:00,20.4,12.5,24.29,NW,307,0.0,4.0,71,0.00,,SKC,0.00,VWS V14.01,2013-03-21 13:50:00,
2013-03-21 09:55:00,20.8,12.6,24.29,NW,311,6.0,7.0,70,0.00,,SKC,0.00,VWS V14.01,2013-03-21 13:55:00,
2013-03-21 10:00:00,20.9,12.4,24.29,WNW,295,3.0,10.0,69,0.00,,SKC,0.00,VWS V14.01,2013-03-21 14:00:00,
2013-03-21 10:05:00,20.9,12.4,24.27,NW,311,6.0,14.0,69,0.00,,SKC,0.00,VWS V14.01,2013-03-21 14:05:00,
2013-03-21 10:10:00,20.9,12.4,24.28,NNW,327,4.0,11.0,69,0.00,,SKC,0.00,VWS V14.01,2013-03-21 14:10:00,
2013-03-21 10:15:00,21.1,12.5,24.27,NNW,344,6.0,11.0,69,0.00,,SKC,0.00,VWS V14.01,2013-03-21 14:15:00,
2013-03-21 10:20:00,21.5,12.9,24.31,WNW,286,4.0,13.0,69,0.00,,SKC,0.00,VWS V14.01,2013-03-21 14:20:00,
2013-03-21 10:25:00,21.5,12.3,24.38,NW,309,10.0,13.0,67,0.00,,SKC,0.00,VWS V14.01,2013-03-21 14:25:00,
2013-03-21 10:30:00,21.6,12.4,24.38,NW,322,6.0,14.0,67,0.00,,SKC,0.00,VWS V14.01,2013-03-21 14:30:00,
2013-03-21 10:35:00,21.8,12.2,24.38,West,265,5.0,10.0,66,0.00,,SKC,0.00,VWS V14.01,2013-03-21 14:35:00,
2013-03-21 10:40:00,22.1,12.5,24.38,NW,319,0.0,6.0,66,0.00,,SKC,0.00,VWS V14.01,2013-03-21 14:40:00,
2013-03-21 10:45:00,22.6,12.3,24.36,NNW,341,5.0,12.0,64,0.00,,SKC,0.00,VWS V14.01,2013-03-21 14:45:00,
2013-03-21 10:50:00,22.8,12.5,24.28,WNW,302,7.0,7.0,64,0.00,,SKC,0.00,VWS V14.01,2013-03-21 14:50:00,
2013-03-21 10:55:00,22.9,12.2,24.31,North,360,9.0,9.0,63,0.00,,SKC,0.00,VWS V14.01,2013-03-21 14:55:00,
2013-03-21 11:00:00,23.1,13.1,24.28,NW,306,9.0,11.0,65,0.00,,SKC,0.00,VWS V14.01,2013-03-21 15:00:00,
2013-03-21 11:05:00,23.7,13.3,24.28,NW,313,3.0,10.0,64,0.00,,SKC,0.00,VWS V14.01,2013-03-21 15:05:00,
2013-03-21 11:10:00,23.7,12.2,24.30,NW,315,11.0,14.0,61,0.00,,SKC,0.00,VWS V14.01,2013-03-21 15:10:00,
2013-03-21 11:15:00,23.9,13.1,24.27,WSW,242,6.0,10.0,63,0.00,,SKC,0.00,VWS V14.01,2013-03-21 15:15:00,
2013-03-21 11:19:00,24.3,12.4,24.27,WNW,294,4.0,12.0,60,0.00,,SKC,0.00,VWS V14.01,2013-03-21 15:19:00,
2013-03-21 11:24:00,24.2,12.7,24.27,WSW,252,9.0,16.0,61,0.00,,SKC,0.00,VWS V14.01,2013-03-21 15:24:00,
2013-03-21 11:29:00,24.2,13.1,24.27,WNW,287,2.0,12.0,62,0.00,,SKC,0.00,VWS V14.01,2013-03-21 15:29:00,
2013-03-21 11:34:00,24.2,13.4,24.26,WSW,247,4.0,7.0,63,0.00,,SKC,0.00,VWS V14.01,2013-03-21 15:34:00,
2013-03-21 11:39:00,24.0,13.2,24.26,NW,321,13.0,13.0,63,0.00,,SKC,0.00,VWS V14.01,2013-03-21 15:39:00,
2013-03-21 11:44:00,23.7,13.3,24.26,North,360,8.0,9.0,64,0.00,,SKC,0.00,VWS V14.01,2013-03-21 15:44:00,
2013-03-21 11:49:00,23.5,13.5,24.27,WSW,246,3.0,7.0,65,0.00,,SKC,0.00,VWS V14.01,2013-03-21 15:49:00,
2013-03-21 11:54:00,23.1,13.1,24.27,West,267,4.0,9.0,65,0.00,,SKC,0.00,VWS V14.01,2013-03-21 15:54:00,
2013-03-21 11:59:00,23.3,13.6,24.28,WSW,254,4.0,10.0,66,0.00,,SKC,0.00,VWS V14.01,2013-03-21 15:59:00,
2013-03-21 12:04:00,23.3,14.0,24.29,West,267,5.0,6.0,67,0.00,,SKC,0.00,VWS V14.01,2013-03-21 16:04:00,
2013-03-21 12:09:00,23.5,14.2,24.27,West,272,4.0,11.0,67,0.00,,SKC,0.00,VWS V14.01,2013-03-21 16:09:00,
2013-03-21 12:14:00,23.7,14.7,24.29,NNW,337,6.0,7.0,68,0.00,,SKC,0.00,VWS V14.01,2013-03-21 16:14:00,
2013-03-21 12:19:00,23.5,14.5,24.27,WNW,300,9.0,10.0,68,0.00,,SKC,0.00,VWS V14.01,2013-03-21 16:19:00,
2013-03-21 12:24:00,23.8,14.8,24.27,WNW,299,6.0,14.0,68,0.00,,SKC,0.00,VWS V14.01,2013-03-21 16:24:00,
2013-03-21 12:29:00,24.1,15.4,24.28,WNW,303,3.0,11.0,69,0.00,,SKC,0.00,VWS V14.01,2013-03-21 16:29:00,
2013-03-21 12:34:00,24.5,15.5,24.29,NW,306,5.0,14.0,68,0.00,,SKC,0.00,VWS V14.01,2013-03-21 16:34:00,
2013-03-21 12:39:00,24.9,15.5,24.28,WNW,292,3.0,7.0,67,0.00,,SKC,0.00,VWS V14.01,2013-03-21 16:39:00,
2013-03-21 12:44:00,25.6,16.2,24.27,West,280,5.0,9.0,67,0.00,,SKC,0.00,VWS V14.01,2013-03-21 16:44:00,
2013-03-21 12:49:00,25.3,15.6,24.27,NW,306,4.0,15.0,66,0.00,,SKC,0.00,VWS V14.01,2013-03-21 16:49:00,
2013-03-21 12:54:00,25.7,15.6,24.26,NNW,336,10.0,13.0,65,0.00,,SKC,0.00,VWS V14.01,2013-03-21 16:54:00,
2013-03-21 12:59:00,26.3,16.5,24.27,West,277,4.0,13.0,66,0.00,,SKC,0.00,VWS V14.01,2013-03-21 16:59:00,
2013-03-21 13:04:00,26.1,15.2,24.26,West,259,9.0,12.0,63,0.00,,SKC,0.00,VWS V14.01,2013-03-21 17:04:00,
2013-03-21 13:09:00,26.0,14.8,24.26,North,9,6.0,15.0,62,0.00,,SKC,0.00,VWS V14.01,2013-03-21 17:09:00,
2013-03-21 13:14:00,25.6,14.8,24.26,SW,233,4.0,12.0,63,0.00,,SKC,0.00,VWS V14.01,2013-03-21 17:14:00,
2013-03-21 13:19:00,25.8,15.0,24.26,NW,326,8.0,8.0,63,0.00,,SKC,0.00,VWS V14.01,2013-03-21 17:19:00,
2013-03-21 13:24:00,26.0,14.8,24.26,North,355,4.0,6.0,62,0.00,,SKC,0.00,VWS V14.01,2013-03-21 17:24:00,
2013-03-21 13:29:00,26.8,15.5,24.27,North,349,15.0,15.0,62,0.00,,SKC,0.00,VWS V14.01,2013-03-21 17:29:00,
2013-03-21 13:34:00,27.2,15.2,24.27,WNW,295,5.0,11.0,60,0.00,,SKC,0.00,VWS V14.01,2013-03-21 17:34:00,
2013-03-21 13:39:00,27.4,15.0,24.28,North,360,11.0,11.0,59,0.00,,SKC,0.00,VWS V14.01,2013-03-21 17:39:00,
2013-03-21 13:44:00,27.0,14.6,24.28,WNW,300,4.0,11.0,59,0.00,,SKC,0.00,VWS V14.01,2013-03-21 17:44:00,
2013-03-21 13:49:00,27.5,15.1,24.29,NW,321,7.0,12.0,59,0.00,,SKC,0.00,VWS V14.01,2013-03-21 17:49:00,
2013-03-21 13:54:00,27.3,14.5,24.28,WNW,287,2.0,11.0,58,0.00,,SKC,0.00,VWS V14.01,2013-03-21 17:54:00,
2013-03-21 13:59:00,28.1,15.2,24.28,NNW,336,8.0,13.0,58,0.00,,SKC,0.00,VWS V14.01,2013-03-21 17:59:00,
2013-03-21 14:04:00,28.1,14.4,24.31,NW,323,0.0,3.0,56,0.00,,SKC,0.00,VWS V14.01,2013-03-21 18:04:00,
2013-03-21 14:09:00,28.5,15.2,24.31,NNW,344,7.0,9.0,57,0.00,,SKC,0.00,VWS V14.01,2013-03-21 18:09:00,
2013-03-21 14:14:00,28.0,14.3,24.31,West,276,11.0,11.0,56,0.00,,SKC,0.00,VWS V14.01,2013-03-21 18:14:00,
2013-03-21 14:19:00,28.3,14.6,24.32,WNW,299,0.0,9.0,56,0.00,,SKC,0.00,VWS V14.01,2013-03-21 18:19:00,
2013-03-21 14:24:00,28.2,14.5,24.31,NW,307,5.0,11.0,56,0.00,,SKC,0.00,VWS V14.01,2013-03-21 18:24:00,
2013-03-21 14:29:00,28.4,14.7,24.31,NNW,329,3.0,12.0,56,0.00,,SKC,0.00,VWS V14.01,2013-03-21 18:29:00,
2013-03-21 14:34:00,28.7,15.4,24.31,NW,307,7.0,13.0,57,0.00,,SKC,0.00,VWS V14.01,2013-03-21 18:34:00,
2013-03-21 14:39:00,29.0,14.9,24.30,NNW,342,1.0,10.0,55,0.00,,SKC,0.00,VWS V14.01,2013-03-21 18:39:00,
2013-03-21 14:44:00,29.2,15.5,24.32,NW,325,5.0,15.0,56,0.00,,SKC,0.00,VWS V14.01,2013-03-21 18:44:00,
2013-03-21 14:49:00,29.2,14.6,24.31,NW,325,1.0,7.0,54,0.00,,SKC,0.00,VWS V14.01,2013-03-21 18:49:00,
2013-03-21 14:54:00,29.4,14.8,24.31,NNW,333,4.0,12.0,54,0.00,,SKC,0.00,VWS V14.01,2013-03-21 18:54:00,
2013-03-21 14:59:00,29.7,14.7,24.31,North,349,1.0,7.0,53,0.00,,SKC,0.00,VWS V14.01,2013-03-21 18:59:00,
2013-03-21 15:04:00,30.2,14.7,24.30,NNW,338,6.0,13.0,52,0.00,,SKC,0.00,VWS V14.01,2013-03-21 19:04:00,
2013-03-21 15:09:00,29.5,14.1,24.28,NNW,334,10.0,13.0,52,0.00,,SKC,0.00,VWS V14.01,2013-03-21 19:09:00,
2013-03-21 15:14:00,29.9,15.3,24.29,NW,317,6.0,11.0,54,0.00,,SKC,0.00,VWS V14.01,2013-03-21 19:14:00,
2013-03-21 15:19:00,30.1,15.1,24.27,West,273,6.0,7.0,53,0.00,,SKC,0.00,VWS V14.01,2013-03-21 19:19:00,
2013-03-21 15:24:00,30.6,15.5,24.30,West,273,9.0,12.0,53,0.00,,SKC,0.00,VWS V14.01,2013-03-21 19:24:00,
2013-03-21 15:29:00,30.3,15.2,24.29,NW,317,4.0,13.0,53,0.00,,SKC,0.00,VWS V14.01,2013-03-21 19:29:00,
2013-03-21 15:34:00,30.0,14.1,24.29,West,265,9.0,14.0,51,0.00,,SKC,0.00,VWS V14.01,2013-03-21 19:34:00,
2013-03-21 15:39:00,30.2,15.6,24.28,West,269,5.0,10.0,54,0.00,,SKC,0.00,VWS V14.01,2013-03-21 19:39:00,
2013-03-21 15:44:00,30.9,15.4,24.27,West,273,9.0,11.0,52,0.00,,SKC,0.00,VWS V14.01,2013-03-21 19:44:00,
2013-03-21 15:49:00,31.1,15.1,24.28,West,275,4.0,12.0,51,0.00,,SKC,0.00,VWS V14.01,2013-03-21 19:49:00,
2013-03-21 15:54:00,30.8,15.3,24.28,WNW,283,11.0,11.0,52,0.00,,SKC,0.00,VWS V14.01,2013-03-21 19:54:00,
2013-03-21 15:59:00,30.5,15.0,24.31,WNW,292,3.0,11.0,52,0.00,,SKC,0.00,VWS V14.01,2013-03-21 19:59:00,
2013-03-21 16:04:00,30.4,15.3,24.29,WSW,246,5.0,8.0,53,0.00,,SKC,0.00,VWS V14.01,2013-03-21 20:04:00,
2013-03-21 16:09:00,30.7,15.2,24.28,West,263,7.0,13.0,52,0.00,,SKC,0.00,VWS V14.01,2013-03-21 20:09:00,
2013-03-21 16:14:00,30.6,14.6,24.27,NW,317,6.0,14.0,51,0.00,,SKC,0.00,VWS V14.01,2013-03-21 20:14:00,
2013-03-21 16:19:00,30.1,14.6,24.27,NW,315,4.0,11.0,52,0.00,,SKC,0.00,VWS V14.01,2013-03-21 20:19:00,
2013-03-21 16:24:00,30.6,15.5,24.27,WSW,256,4.0,4.0,53,0.00,,SKC,0.00,VWS V14.01,2013-03-21 20:24:00,
2013-03-21 16:29:00,30.9,15.4,24.27,West,269,3.0,6.0,52,0.00,,SKC,0.00,VWS V14.01,2013-03-21 20:29:00,
2013-03-21 16:34:00,31.2,15.6,24.27,NW,322,5.0,7.0,52,0.00,,SKC,0.00,VWS V14.01,2013-03-21 20:34:00,
2013-03-21 16:39:00,31.1,15.5,24.28,WSW,248,4.0,10.0,52,0.00,,SKC,0.00,VWS V14.01,2013-03-21 20:39:00,
2013-03-21 16:44:00,31.0,15.4,24.27,West,275,2.0,7.0,52,0.00,,SKC,0.00,VWS V14.01,2013-03-21 20:44:00,
2013-03-21 16:49:00,30.9,15.4,24.27,WNW,292,12.0,13.0,52,0.00,,SKC,0.00,VWS V14.01,2013-03-21 20:49:00,
2013-03-21 16:54:00,31.1,15.1,24.27,West,269,2.0,6.0,51,0.00,,SKC,0.00,VWS V14.01,2013-03-21 20:54:00,
2013-03-21 16:59:00,31.1,15.1,24.27,NW,322,5.0,12.0,51,0.00,,SKC,0.00,VWS V14.01,2013-03-21 20:59:00,
2013-03-21 17:04:00,31.1,15.5,24.29,West,268,5.0,10.0,52,0.00,,SKC,0.00,VWS V14.01,2013-03-21 21:04:00,
2013-03-21 17:09:00,31.1,15.1,24.28,West,271,4.0,9.0,51,0.00,,SKC,0.00,VWS V14.01,2013-03-21 21:09:00,
2013-03-21 17:14:00,31.1,14.6,24.27,West,271,0.0,6.0,50,0.00,,SKC,0.00,VWS V14.01,2013-03-21 21:14:00,
2013-03-21 17:19:00,31.4,15.4,24.27,WNW,301,11.0,11.0,51,0.00,,SKC,0.00,VWS V14.01,2013-03-21 21:19:00,
2013-03-21 17:24:00,31.2,14.7,24.28,North,349,4.0,5.0,50,0.00,,SKC,0.00,VWS V14.01,2013-03-21 21:24:00,
2013-03-21 17:29:00,31.2,15.6,24.27,NW,319,3.0,4.0,52,0.00,,SKC,0.00,VWS V14.01,2013-03-21 21:29:00,
2013-03-21 17:34:00,31.3,14.8,24.27,NW,313,5.0,12.0,50,0.00,,SKC,0.00,VWS V14.01,2013-03-21 21:34:00,
2013-03-21 17:39:00,31.2,14.7,24.29,NW,304,0.0,7.0,50,0.00,,SKC,0.00,VWS V14.01,2013-03-21 21:39:00,
2013-03-21 17:44:00,31.4,14.9,24.27,NW,321,4.0,4.0,50,0.00,,SKC,0.00,VWS V14.01,2013-03-21 21:44:00,
2013-03-21 17:49:00,31.4,14.9,24.27,NNW,348,3.0,11.0,50,0.00,,SKC,0.00,VWS V14.01,2013-03-21 21:49:00,
2013-03-21 17:54:00,31.2,14.7,24.26,West,273,0.0,10.0,50,0.00,,SKC,0.00,VWS V14.01,2013-03-21 21:54:00,
2013-03-21 17:59:00,31.1,15.1,24.27,NW,314,6.0,10.0,51,0.00,,SKC,0.00,VWS V14.01,2013-03-21 21:59:00,
2013-03-21 18:04:00,31.1,15.1,24.29,WSW,238,0.0,5.0,51,0.00,,SKC,0.00,VWS V14.01,2013-03-21 22:04:00,
2013-03-21 18:09:00,31.2,15.6,24.28,NW,310,3.0,4.0,52,0.00,,SKC,0.00,VWS V14.01,2013-03-21 22:09:00,
2013-03-21 18:14:00,31.3,15.3,24.28,NW,313,3.0,9.0,51,0.00,,SKC,0.00,VWS V14.01,2013-03-21 22:14:00,
2013-03-21 18:19:00,31.2,14.7,24.27,NNW,329,3.0,11.0,50,0.00,,SKC,0.00,VWS V14.01,2013-03-21 22:19:00,
2013-03-21 18:24:00,31.2,15.2,24.27,West,265,0.0,4.0,51,0.00,,SKC,0.00,VWS V14.01,2013-03-21 22:24:00,
2013-03-21 18:29:00,31.2,14.7,24.27,NNW,328,2.0,7.0,50,0.00,,SKC,0.00,VWS V14.01,2013-03-21 22:29:00,
2013-03-21 18:34:00,31.2,14.7,24.28,WNW,302,3.0,7.0,50,0.00,,SKC,0.00,VWS V14.01,2013-03-21 22:34:00,
2013-03-21 18:39:00,31.3,15.3,24.29,NW,326,2.0,5.0,51,0.00,,SKC,0.00,VWS V14.01,2013-03-21 22:39:00,
2013-03-21 18:44:00,31.3,14.8,24.30,West,276,6.0,9.0,50,0.00,,SKC,0.00,VWS V14.01,2013-03-21 22:44:00,
2013-03-21 18:49:00,31.2,14.7,24.27,WNW,287,4.0,9.0,50,0.00,,SKC,0.00,VWS V14.01,2013-03-21 22:49:00,
2013-03-21 18:54:00,31.2,15.2,24.27,NW,325,0.0,0.0,51,0.00,,SKC,0.00,VWS V14.01,2013-03-21 22:54:00,
2013-03-21 18:59:00,31.3,14.8,24.26,West,281,4.0,7.0,50,0.00,,SKC,0.00,VWS V14.01,2013-03-21 22:59:00,
2013-03-21 19:04:00,31.3,15.3,24.27,West,279,5.0,6.0,51,0.00,,SKC,0.00,VWS V14.01,2013-03-21 23:04:00,
2013-03-21 19:09:00,31.2,14.7,24.28,West,280,3.0,4.0,50,0.00,,SKC,0.00,VWS V14.01,2013-03-21 23:09:00,
2013-03-21 19:14:00,31.1,14.6,24.27,WNW,288,7.0,7.0,50,0.00,,SKC,0.00,VWS V14.01,2013-03-21 23:14:00,
2013-03-21 19:19:00,31.0,14.6,24.27,WNW,288,0.0,3.0,50,0.00,,SKC,0.00,VWS V14.01,2013-03-21 23:19:00,
2013-03-21 19:24:00,31.1,15.1,24.27,West,268,0.0,5.0,51,0.00,,SKC,0.00,VWS V14.01,2013-03-21 23:24:00,
2013-03-21 19:29:00,31.2,15.2,24.27,West,263,3.0,7.0,51,0.00,,SKC,0.00,VWS V14.01,2013-03-21 23:29:00,
2013-03-21 19:34:00,31.2,14.7,24.29,West,273,3.0,6.0,50,0.00,,SKC,0.00,VWS V14.01,2013-03-21 23:34:00,
2013-03-21 19:39:00,31.2,14.7,24.28,WSW,248,7.0,7.0,50,0.00,,SKC,0.00,VWS V14.01,2013-03-21 23:39:00,
2013-03-21 19:44:00,31.1,14.6,24.27,West,273,2.0,4.0,50,0.00,,SKC,0.00,VWS V14.01,2013-03-21 23:44:00,
2013-03-21 19:49:00,31.0,14.6,24.28,WNW,289,0.0,7.0,50,0.00,,SKC,0.00,VWS V14.01,2013-03-21 23:49:00,
2013-03-21 19:54:00,30.9,14.0,24.29,WNW,290,0.0,6.0,49,0.00,,SKC,0.00,VWS V14.01,2013-03-21 23:54:00,
2013-03-21 19:59:00,30.8,14.4,24.29,West,271,0.0,3.0,50,0.00,,SKC,0.00,VWS V14.01,2013-03-21 23:59:00,
2013-03-21 20:04:00,30.8,14.8,24.28,West,271,0.0,0.0,51,0.00,,SKC,0.00,VWS V14.01,2013-03-22 00:04:00,
2013-03-21 20:09:00,30.6,15.1,24.27,West,271,0.0,0.0,52,0.00,,SKC,0.00,VWS V14.01,2013-03-22 00:09:00,
2013-03-21 20:14:00,30.5,15.0,24.27,West,271,1.0,3.0,52,0.00,,SKC,0.00,VWS V14.01,2013-03-22 00:14:00,
2013-03-21 20:19:00,30.3,15.2,24.28,West,271,0.0,1.0,53,0.00,,SKC,0.00,VWS V14.01,2013-03-22 00:19:00,
2013-03-21 20:24:00,30.2,15.1,24.29,WSW,247,2.0,2.0,53,0.00,,SKC,0.00,VWS V14.01,2013-03-22 00:24:00,
2013-03-21 20:29:00,30.0,15.0,24.28,WSW,246,2.0,3.0,53,0.00,,SKC,0.00,VWS V14.01,2013-03-22 00:29:00,
2013-03-21 20:34:00,29.8,14.8,24.31,WSW,248,0.0,0.0,53,0.00,,SKC,0.00,VWS V14.01,2013-03-22 00:34:00,
2013-03-21 20:39:00,29.7,15.1,24.32,WSW,247,0.0,1.0,54,0.00,,SKC,0.00,VWS V14.01,2013-03-22 00:39:00,
2013-03-21 20:44:00,29.6,15.4,24.32,WSW,248,0.0,0.0,55,0.00,,SKC,0.00,VWS V14.01,2013-03-22 00:44:00,
2013-03-21 20:49:00,29.4,15.2,24.29,WSW,248,0.0,2.0,55,0.00,,SKC,0.00,VWS V14.01,2013-03-22 00:49:00,
2013-03-21 20:54:00,29.4,15.2,24.30,WSW,248,0.0,2.0,55,0.00,,SKC,0.00,VWS V14.01,2013-03-22 00:54:00,
2013-03-21 20:59:00,29.3,15.1,24.30,WSW,248,0.0,0.0,55,0.00,,SKC,0.00,VWS V14.01,2013-03-22 00:59:00,
2013-03-21 21:04:00,29.2,15.5,24.29,WSW,248,0.0,0.0,56,0.00,,SKC,0.00,VWS V14.01,2013-03-22 01:04:00,
2013-03-21 21:09:00,29.0,15.3,24.31,WSW,248,0.0,1.0,56,0.00,,SKC,0.00,VWS V14.01,2013-03-22 01:09:00,
2013-03-21 21:14:00,28.9,15.6,24.32,WSW,248,0.0,0.0,57,0.00,,SKC,0.00,VWS V14.01,2013-03-22 01:14:00,
2013-03-21 21:19:00,28.9,15.6,24.31,WSW,248,0.0,0.0,57,0.00,,SKC,0.00,VWS V14.01,2013-03-22 01:19:00,
2013-03-21 21:24:00,28.8,15.9,24.31,WSW,248,0.0,0.0,58,0.00,,SKC,0.00,VWS V14.01,2013-03-22 01:24:00,
2013-03-21 21:29:00,28.6,15.7,24.31,WSW,248,0.0,0.0,58,0.00,,SKC,0.00,VWS V14.01,2013-03-22 01:29:00,
2013-03-21 21:34:00,28.5,16.0,24.32,WSW,248,0.0,0.0,59,0.00,,SKC,0.00,VWS V14.01,2013-03-22 01:34:00,
2013-03-21 21:39:00,28.4,15.9,24.32,WSW,248,0.0,0.0,59,0.00,,SKC,0.00,VWS V14.01,2013-03-22 01:39:00,
2013-03-21 21:44:00,28.3,16.2,24.32,WSW,248,0.0,0.0,60,0.00,,SKC,0.00,VWS V14.01,2013-03-22 01:44:00,
2013-03-21 21:49:00,28.2,16.1,24.32,WSW,248,0.0,0.0,60,0.00,,SKC,0.00,VWS V14.01,2013-03-22 01:49:00,
2013-03-21 21:54:00,28.2,16.1,24.31,WSW,248,0.0,0.0,60,0.00,,SKC,0.00,VWS V14.01,2013-03-22 01:54:00,
2013-03-21 21:59:00,28.1,16.4,24.32,WSW,248,0.0,0.0,61,0.00,,SKC,0.00,VWS V14.01,2013-03-22 01:59:00,
2013-03-21 22:04:00,27.9,16.2,24.32,WSW,248,0.0,0.0,61,0.00,,SKC,0.00,VWS V14.01,2013-03-22 02:04:00,
2013-03-21 22:09:00,27.9,16.2,24.31,WSW,248,0.0,0.0,61,0.00,,SKC,0.00,VWS V14.01,2013-03-22 02:09:00,
2013-03-21 22:14:00,27.8,16.1,24.29,WSW,248,0.0,0.0,61,0.00,,SKC,0.00,VWS V14.01,2013-03-22 02:14:00,
2013-03-21 22:19:00,27.7,16.4,24.30,WSW,248,0.0,0.0,62,0.00,,SKC,0.00,VWS V14.01,2013-03-22 02:19:00,
2013-03-21 22:24:00,27.5,16.6,24.31,WSW,248,0.0,0.0,63,0.00,,SKC,0.00,VWS V14.01,2013-03-22 02:24:00,
2013-03-21 22:29:00,27.5,16.2,24.30,WSW,248,0.0,0.0,62,0.00,,SKC,0.00,VWS V14.01,2013-03-22 02:29:00,
2013-03-21 22:34:00,27.5,16.2,24.28,WSW,248,0.0,0.0,62,0.00,,SKC,0.00,VWS V14.01,2013-03-22 02:34:00,
2013-03-21 22:39:00,27.5,16.2,24.28,WSW,248,0.0,0.0,62,0.00,,SKC,0.00,VWS V14.01,2013-03-22 02:39:00,
2013-03-21 22:44:00,27.4,16.5,24.27,WSW,248,0.0,0.0,63,0.00,,SKC,0.00,VWS V14.01,2013-03-22 02:44:00,
2013-03-21 22:49:00,27.3,16.4,24.27,WSW,248,0.0,0.0,63,0.00,,SKC,0.00,VWS V14.01,2013-03-22 02:49:00,
2013-03-21 22:54:00,27.3,16.4,24.28,WSW,248,0.0,0.0,63,0.00,,SKC,0.00,VWS V14.01,2013-03-22 02:54:00,
2013-03-21 22:59:00,27.1,16.6,24.28,WSW,248,0.0,0.0,64,0.00,,SKC,0.00,VWS V14.01,2013-03-22 02:59:00,
2013-03-21 23:04:00,26.9,16.7,24.28,WSW,248,0.0,0.0,65,0.00,,SKC,0.00,VWS V14.01,2013-03-22 03:04:00,
2013-03-21 23:09:00,26.7,16.5,24.28,WSW,248,0.0,0.0,65,0.00,,SKC,0.00,VWS V14.01,2013-03-22 03:09:00,
2013-03-21 23:14:00,26.6,16.4,24.27,WSW,248,0.0,0.0,65,0.00,,SKC,0.00,VWS V14.01,2013-03-22 03:14:00,
2013-03-21 23:19:00,26.5,16.7,24.28,WSW,248,0.0,0.0,66,0.00,,SKC,0.00,VWS V14.01,2013-03-22 03:19:00,
2013-03-21 23:24:00,26.4,16.6,24.30,WSW,248,0.0,0.0,66,0.00,,SKC,0.00,VWS V14.01,2013-03-22 03:24:00,
2013-03-21 23:29:00,26.3,16.5,24.31,WSW,248,0.0,0.0,66,0.00,,SKC,0.00,VWS V14.01,2013-03-22 03:29:00,
2013-03-21 23:34:00,26.3,16.5,24.31,WSW,248,0.0,0.0,66,0.00,,SKC,0.00,VWS V14.01,2013-03-22 03:34:00,
2013-03-21 23:39:00,26.3,16.9,24.28,WSW,248,0.0,0.0,67,0.00,,SKC,0.00,VWS V14.01,2013-03-22 03:39:00,
2013-03-21 23:44:00,26.2,16.8,24.28,WSW,248,0.0,0.0,67,0.00,,SKC,0.00,VWS V14.01,2013-03-22 03:44:00,
2013-03-21 23:49:00,26.2,16.8,24.29,WSW,248,0.0,0.0,67,0.00,,SKC,0.00,VWS V14.01,2013-03-22 03:49:00,
2013-03-21 23:54:00,26.2,16.4,24.31,WSW,248,0.0,0.0,66,0.00,,SKC,0.00,VWS V14.01,2013-03-22 03:54:00,
2013-03-21 23:59:00,26.2,16.4,24.31,WSW,248,0.0,1.0,66,0.00,,SKC,0.00,VWS V14.01,2013-03-22 03:59:00,